{"data":{"norad_id":59412,"epoch":"2026-05-24T22:16:05.058048Z","epoch_age_seconds":77703,"freshness":"FRESH","line1":"1 59412U 24064Q   26144.92783632 -.00000875  00000+0 -22282-4 0  9995","line2":"2 59412  43.0027 345.7695 0001399 273.2441  86.8250 15.27568888120889","mean_motion":15.27568888,"eccentricity":0.0001399,"inclination_deg":43.0027,"raan_deg":345.7695,"arg_perigee_deg":273.2441,"mean_anomaly_deg":86.825,"bstar":-2.2282e-5,"rev_number":12088,"period_min":94.26743443861,"perigee_km":482.12248497707,"apogee_km":484.04225415668,"semimajor_km":6861.2193695669,"source":"CELESTRAK","updated_at":"2026-05-25T13:38:18.941466Z"}}